METEOR 2-6

Satellite information

Favourite Embed

Satellite Type and Status

PAYLOADIN ORBIT

Key statistics

Satellite METEOR 2-6 at a glance.

Uptime

16372

Days in orbit

Revolutions

≈ 14.1

Per day

Orbit

LEO

Low Earth Orbit

Inclination

81.2

Latest

Satellite identification and parameters

Extended collection of information and parameters for METEOR 2-6.

Object identification

Identified? True

Debris? False

Object name: METEOR 2-6

International designator: 1980-073A

Object number (NORAD): 11962

Object ID (CCSDS): 11962

Country: COMMONWEALTH OF INDEPENDENT STATES (CIS)

Current information (Y/N): Y

RCS size: LARGE

Orbital parameters

Period: 102.05 minutes

Inclination: 81.2225 deg

SMA: 7233.845 km

Apoapsis: 882.522 km

Periapsis: 828.899 km

RAAN: 68.6189 deg

Eccentricy: 0.0037064

Argument of periapsis: 42.6037 deg

Mean anomaly: 317.7999 deg

Mean motion: 14.11071272 rev/day

Mean motion (dot): 0.00000127 rev/day2

B* drag term: 0.000063043 1/REarth

Two-line elements (TLE)

Creation date: July 5, 2025, 5:45 p.m.

Reference frame: TEME

Reference center: EARTH

Epoch: July 5, 2025, 2:54 p.m. UTC

TLE line 0: 0 METEOR 2-6

TLE line 1: 1 11962U 80073A 25186.62117408 .00000127 00000-0 63043-4 0 9998

TLE line 2: 2 11962 81.2225 68.6189 0037064 42.6037 317.7999 14.11071272305853

Live tracking on map

Real-time ground track for satellite METEOR 2-6.

In-orbit conjunctions

A list of the most updated potential collisions computed for object METEOR 2-6.

Target Orbit TCA Probability of collision Miss distance Type
COSMOS 970 DEB LEO 2025-06-24 22:10:46 0.0001253355 956.0 (m) DEBRIS
COSMOS 2251 DEB LEO 2025-04-04 04:58:08 0.0001738562 580.0 (m) DEBRIS
FENGYUN 1C DEB SSO 2025-02-23 12:01:29 0.0001585595 115.0 (m) DEBRIS
DELTA 1 DEB SSO 2025-02-21 22:35:59 0.0001476725 111.0 (m) DEBRIS
FENGYUN 1C DEB SSO 2025-02-12 01:12:15 0.0002749399 975.0 (m) DEBRIS

Associated space launch

Second generation soviet meteorological satellite

METEOR 2-6 was lifted into orbit during the mission ‘Vostok 8A92M | Meteor-2 6’, on board a Vostok 8A92M space rocket.

The launch took place on Sept. 9, 1980, 11 a.m. from 43/3 (43L).

For more information about the launch, click the button.

Launch to space Vostok 8A92M | Meteor-2 6
Vostok 8A92M | Meteor-2 6

Agency: N/A

Status: Launch Successful

Launch date: Sept. 9, 1980, 11 a.m. UTC

Rocket: Vostok 8A92M

Launch pad: 43/3 (43L)

Location: Plesetsk Cosmodrome, Russian Federation

...

Latest news about this satellite

There are no fresh news available about this satellite. Check back as we update our databases every day.


Newsletter sign-up

Weekly statistics, charts and insights to help you stay on top of the space industry.